Tracking 35280 objects as of 7-Sep-2026
HD Live streaming from Space Station
objects crossing your sky now

SPACEBEE-10


SPACEBEE-10 is no longer on orbit


NORAD ID: 46305
Int'l Code: 2020-061AK
Launch date: September 3, 2020
Source: United States (US)
Launch site: FRENCH GUIANA (FRGUI)
Decay date: 2023-03-28
Your satellite tracking list
Your tracking list is empty




NASA's NSSDC Master Catalog

Two Line Element Set (TLE):
1 46305U 20061AK  23083.86119944  .04441775  53865-1  54130-2 0  9990
2 46305  97.3877 164.2682 0014878 286.6211  73.3441 16.13153086141602
Source of the keplerian elements: AFSPC